Retour au catalogue

CZ-6A DEB

ActifPO
NORAD 54902·DEBRIS·🇨🇳 China

Lancé Nov 11, 2022 depuis Taiyuan Satellite Launch Center

Loading…

Prochains Passages (prochaines 24 heures)

TLE

FraisSource: Space-Track

Époque: Sep 13, 2026, 17:48 UTC

1 54902U 22151QP  26256.74212781  .00040416  00000-0  27153-2 0  9999
2 54902  98.6040 344.1463 0028751 300.6364  59.2026 15.06317491204073

Suivez CZ-6A DEB en temps réel avec AllMySat

Download on the App Store